Content
SEND FEEDBACK

Daily
Averages
Monthly
Summary
United States of America

NATIONAL CITY, CALIFORNIA


Home > North America > United States > California
Elevation: 142 feet     Latitude: 32 44N     Longitude: 117 10W

WEATHER
 
SELECT A DAY
Number of Records: 194,518;   Date Range: 1/1/95 - 8/12/14
 
SHARE

PRINT THIS DATA

[ ← Previous Day ]
WEATHER ALMANAC - FEBRUARY 13, 2013
[ Next Day → ]
[ °C ]   °F
Weather ElementAverageHighLow
Temperature54.4 °F61 °F (11:51 am)45 °F (6:51 am)
Dewpoint41.3 °F50 °F (5:51 pm)32 °F (5:51 am)
Humidity62.7 %83 % (11:51 pm)38 % (10:51 am)
Barometer30.22 in30.28 in (8:51 am)30.16 in (4:51 pm)
Wind Speed3.8 mph10.4 mph (11:51 am)
Weather ElementAverage
Visibility9.8 mi
Wind DirectionSSE (159.2 °)

Weather ElementTotal
Precipitation---
Heating Degree Days12 (Base 65)
Growing Degree Days3 (Base 50)
Averaged from 24 records on February 13, 2013
WEATHER CONDITIONS BREAKOUT
WIND DIRECTION BREAKOUT
WEATHER BY HOUR - FEBRUARY 13, 2013
[ °C ]   °F
Local TimeTemperatureDewpointHumidityBarometerVisibilityWind DirectionWind SpeedGust SpeedPrecipitationEventsConditions
1:51 AM48.0 °F37.9 °F68 %30.26 in10.0 miCalmClear
2:51 AM46.9 °F37.0 °F68 %30.25 in10.0 miCalmClear
3:51 AM46.0 °F36.0 °F68 %30.25 in10.0 miCalmClear
4:51 AM46.9 °F33.1 °F59 %30.25 in10.0 miCalmClear
5:51 AM46.0 °F32.0 °F58 %30.25 in10.0 miCalmClear
6:51 AM45.0 °F32.0 °F60 %30.27 in10.0 miCalmClear
7:51 AM50.0 °F32.0 °F50 %30.27 in10.0 miNorth (360°)3.5 mphClear
8:51 AM53.1 °F32.0 °F45 %30.28 in10.0 miCalmClear
9:51 AM57.0 °F34.0 °F42 %30.27 in10.0 miVariable3.5 mphClear
10:51 AM60.1 °F34.0 °F38 %30.26 in10.0 miWNW (290°)4.6 mphClear
11:51 AM61.0 °F37.0 °F41 %30.24 in10.0 miNW (320°)10.4 mphClear
12:51 PM61.0 °F42.1 °F50 %30.21 in10.0 miNW (310°)9.2 mphClear
1:51 PM60.1 °F45.0 °F57 %30.19 in10.0 miNW (310°)8.1 mphClear
2:36 PM60.8 °F46.4 °F59 %30.18 in10.0 miWNW (300°)10.4 mphPartly Cloudy
2:51 PM60.1 °F46.0 °F60 %30.17 in10.0 miWNW (300°)10.4 mphPartly Cloudy
3:51 PM60.1 °F46.9 °F62 %30.17 in10.0 miNW (320°)8.1 mphPartly Cloudy
4:51 PM59.0 °F48.9 °F69 %30.16 in10.0 miWNW (290°)9.2 mphPartly Cloudy
5:51 PM57.0 °F50.0 °F77 %30.17 in10.0 miNW (310°)5.8 mphPartly Cloudy
6:51 PM57.0 °F48.9 °F74 %30.18 in10.0 miNorth (360°)4.6 mphScattered Clouds
7:51 PM55.9 °F48.9 °F77 %30.19 in10.0 miCalmPartly Cloudy
8:51 PM55.0 °F48.9 °F80 %30.18 in10.0 miNorth (350°)3.5 mphPartly Cloudy
9:51 PM54.0 °F48.0 °F80 %30.18 in9.0 miCalmClear
10:51 PM53.1 °F46.9 °F80 %30.19 in8.0 miCalmPartly Cloudy
11:51 PM52.0 °F46.9 °F83 %30.19 in7.0 miCalmClear
Hourly data recorded from KSAN, located miles away from National City, California







STORIES FROM OUR PARTNERS